Terminal Aerodrome Forecast
Issued by NWS

Home | Current Version | Previous Version | Text Only | Print | Product List | Glossary On
Versions: 1 2 3 4 5 6 7 8 9 10 11 12 13 14 15 16 17 18 19 20 21 22 23 24 25 26 27 28 29 30 31 32 33 34 35 36 37 38 39 40 41 42 43 44 45 46 47 48 49 50
000
FTUS41 KCTP 271758 AAA
TAFBFD
TAF AMD
KBFD 271758Z 2718/2818 26006KT P6SM BKN026 BKN060
     FM280200 20006KT P6SM BKN250
     FM280900 28004KT 4SM BR OVC004
     FM281200 29005KT P6SM SCT004 BKN050
     FM281500 32008KT P6SM SCT250=

USA.gov is the U.S. government's official web portal to all federal, state and local government web resources and services.